Previsão horária em Juszczyn

Hoje, 19 Junho, Sábado

Tempo Temperatura Precipitação Vento Pressão Humidade
00:00 +21°C° 0 mm 2 m/s 749 mmHg 74%
01:00 +20°C° 0 mm 2 m/s 749 mmHg 75%
02:00 +20°C° 0 mm 2 m/s 749 mmHg 76%
03:00 +19°C° 0 mm 2 m/s 749 mmHg 77%
04:00 +19°C° 0 mm 2 m/s 749 mmHg 77%
05:00 +21°C° 0 mm 2 m/s 749 mmHg 74%
06:00 +23°C° 0 mm 2 m/s 749 mmHg 70%
07:00 +25°C° 0 mm 2 m/s 749 mmHg 66%
08:00 +27°C° 0 mm 2 m/s 749 mmHg 61%
09:00 +29°C° 0 mm 2 m/s 749 mmHg 56%
10:00 +30°C° 0 mm 2 m/s 749 mmHg 50%
11:00 +31°C° 0 mm 2 m/s 749 mmHg 47%
12:00 +32°C° 0 mm 2 m/s 748 mmHg 44%
13:00 +32°C° 0 mm 2 m/s 748 mmHg 41%
14:00 +32°C° 0 mm 2 m/s 748 mmHg 42%
15:00 +32°C° 0 mm 2 m/s 748 mmHg 42%
16:00 +32°C° 0 mm 2 m/s 747 mmHg 42%
17:00 +31°C° 0 mm 2 m/s 747 mmHg 49%
18:00 +30°C° 0 mm 2 m/s 747 mmHg 56%
19:00 +28°C° 0 mm 2 m/s 747 mmHg 63%
20:00 +26°C° 0.1 mm 2 m/s 747 mmHg 69%
21:00 +25°C° 0.1 mm 2 m/s 748 mmHg 75%
22:00 +22°C° 0.1 mm 3 m/s 748 mmHg 81%
23:00 +21°C° 0 mm 2 m/s 748 mmHg 86%

Amanhã, 20 Junho, Domingo

Tempo Temperatura Precipitação Vento Pressão Humidade
00:00 +20°C° 0 mm 2 m/s 748 mmHg 90%
01:00 +19°C° 0 mm 2 m/s 748 mmHg 95%
02:00 +19°C° 0 mm 2 m/s 747 mmHg 94%
03:00 +20°C° 0 mm 1 m/s 747 mmHg 94%
04:00 +20°C° 0 mm 1 m/s 747 mmHg 94%
05:00 +21°C° 0 mm 1 m/s 747 mmHg 89%
06:00 +23°C° 0 mm 2 m/s 747 mmHg 84%
07:00 +24°C° 0 mm 2 m/s 747 mmHg 79%
08:00 +26°C° 0 mm 3 m/s 747 mmHg 72%
09:00 +27°C° 0 mm 3 m/s 747 mmHg 66%
10:00 +29°C° 0 mm 4 m/s 747 mmHg 59%
11:00 +30°C° 0 mm 4 m/s 746 mmHg 56%
12:00 +32°C° 0 mm 4 m/s 746 mmHg 52%
13:00 +32°C° 0 mm 4 m/s 745 mmHg 49%
14:00 +33°C° 0 mm 4 m/s 745 mmHg 49%
15:00 +33°C° 0 mm 4 m/s 745 mmHg 49%
16:00 +33°C° 0 mm 4 m/s 744 mmHg 49%
17:00 +30°C° 0 mm 4 m/s 744 mmHg 55%
18:00 +29°C° 0 mm 3 m/s 744 mmHg 62%
19:00 +27°C° 0 mm 3 m/s 744 mmHg 69%
20:00 +26°C° 0 mm 3 m/s 744 mmHg 72%
21:00 +24°C° 0 mm 3 m/s 744 mmHg 74%
22:00 +22°C° 0 mm 3 m/s 744 mmHg 76%
23:00 +21°C° 0 mm 3 m/s 744 mmHg 79%

Depois de amanhã, 21 Junho, Segunda-feira

Tempo Temperatura Precipitação Vento Pressão Humidade
00:00 +21°C° 0 mm 3 m/s 744 mmHg 82%
01:00 +20°C° 0 mm 3 m/s 744 mmHg 84%
02:00 +20°C° 0 mm 3 m/s 744 mmHg 88%
03:00 +20°C° 0 mm 2 m/s 744 mmHg 92%
04:00 +19°C° 0 mm 2 m/s 743 mmHg 95%
05:00 +20°C° 0 mm 2 m/s 743 mmHg 92%
06:00 +22°C° 0 mm 1 m/s 743 mmHg 88%
07:00 +23°C° 0 mm 1 m/s 743 mmHg 84%
08:00 +25°C° 0.1 mm 1 m/s 743 mmHg 78%
09:00 +26°C° 0.1 mm 1 m/s 743 mmHg 72%
10:00 +28°C° 0.1 mm 1 m/s 743 mmHg 65%
11:00 +29°C° 0 mm 1 m/s 743 mmHg 62%
12:00 +30°C° 0 mm 1 m/s 743 mmHg 59%
13:00 +31°C° 0 mm 1 m/s 742 mmHg 56%
14:00 +30°C° 0.4 mm 2 m/s 742 mmHg 61%
15:00 +29°C° 0.4 mm 3 m/s 742 mmHg 66%
16:00 +28°C° 0.4 mm 3 m/s 742 mmHg 71%
17:00 +26°C° 0.6 mm 4 m/s 743 mmHg 78%
18:00 +23°C° 0.6 mm 4 m/s 743 mmHg 85%
19:00 +22°C° 0.6 mm 4 m/s 743 mmHg 91%
20:00 +21°C° 1.2 mm 3 m/s 743 mmHg 93%
21:00 +20°C° 1.2 mm 2 m/s 744 mmHg 95%
22:00 +21°C° 1.2 mm 1 m/s 744 mmHg 97%
23:00 +20°C° 0.1 mm 1 m/s 744 mmHg 97%

22 Junho, Terça-feira

Tempo Temperatura Precipitação Vento Pressão Humidade
00:00 +19°C° 0.1 mm 2 m/s 744 mmHg 97%
01:00 +19°C° 0.1 mm 2 m/s 744 mmHg 97%
02:00 +18°C° 0 mm 2 m/s 745 mmHg 97%
03:00 +18°C° 0 mm 2 m/s 745 mmHg 97%
04:00 +18°C° 0 mm 2 m/s 745 mmHg 97%
05:00 +19°C° 0 mm 2 m/s 746 mmHg 94%
06:00 +20°C° 0 mm 3 m/s 746 mmHg 91%
07:00 +21°C° 0 mm 3 m/s 746 mmHg 88%
08:00 +21°C° 0 mm 3 m/s 747 mmHg 84%
09:00 +22°C° 0 mm 3 m/s 747 mmHg 81%
10:00 +24°C° 0 mm 3 m/s 747 mmHg 77%
11:00 +25°C° 0 mm 3 m/s 747 mmHg 72%
12:00 +26°C° 0 mm 2 m/s 747 mmHg 66%
13:00 +28°C° 0 mm 2 m/s 747 mmHg 61%
14:00 +28°C° 0 mm 2 m/s 747 mmHg 59%
15:00 +28°C° 0 mm 2 m/s 747 mmHg 57%
16:00 +29°C° 0 mm 2 m/s 747 mmHg 55%
17:00 +28°C° 0 mm 2 m/s 747 mmHg 60%
18:00 +27°C° 0 mm 2 m/s 747 mmHg 66%
19:00 +26°C° 0 mm 2 m/s 747 mmHg 72%
20:00 +25°C° 0 mm 2 m/s 748 mmHg 75%
21:00 +24°C° 0 mm 2 m/s 748 mmHg 78%
22:00 +22°C° 0 mm 1 m/s 748 mmHg 81%
23:00 +21°C° 0 mm 2 m/s 748 mmHg 83%

23 Junho, Quarta-feira

Tempo Temperatura Precipitação Vento Pressão Humidade
00:00 +20°C° 0 mm 2 m/s 748 mmHg 85%
01:00 +20°C° 0 mm 2 m/s 748 mmHg 87%
02:00 +19°C° 0 mm 2 m/s 748 mmHg 89%
03:00 +19°C° 0 mm 2 m/s 748 mmHg 90%
04:00 +19°C° 0 mm 2 m/s 748 mmHg 92%
05:00 +20°C° 0 mm 2 m/s 748 mmHg 87%
06:00 +23°C° 0 mm 2 m/s 748 mmHg 82%
07:00 +24°C° 0 mm 2 m/s 748 mmHg 77%
08:00 +26°C° 0 mm 3 m/s 748 mmHg 73%
09:00 +27°C° 0 mm 3 m/s 748 mmHg 68%
10:00 +28°C° 0 mm 4 m/s 748 mmHg 63%
11:00 +29°C° 0 mm 3 m/s 748 mmHg 60%
12:00 +30°C° 0 mm 3 m/s 747 mmHg 57%
13:00 +31°C° 0 mm 2 m/s 747 mmHg 54%
14:00 +32°C° 0.1 mm 2 m/s 747 mmHg 54%
15:00 +32°C° 0.1 mm 2 m/s 747 mmHg 54%
16:00 +32°C° 0.1 mm 1 m/s 747 mmHg 54%
17:00 +30°C° 0.6 mm 2 m/s 747 mmHg 62%
18:00 +29°C° 0.6 mm 2 m/s 747 mmHg 69%
19:00 +27°C° 0.6 mm 2 m/s 747 mmHg 76%
20:00 +26°C° 2.7 mm 2 m/s 747 mmHg 82%
21:00 +24°C° 2.7 mm 3 m/s 748 mmHg 88%
22:00 +21°C° 2.7 mm 3 m/s 748 mmHg 95%
23:00 +21°C° 1.1 mm 3 m/s 749 mmHg 95%

24 Junho, Quinta-feira

Tempo Temperatura Precipitação Vento Pressão Humidade
00:00 +20°C° 1.1 mm 4 m/s 749 mmHg 96%
01:00 +20°C° 1.1 mm 4 m/s 749 mmHg 96%
02:00 +19°C° 1.1 mm 5 m/s 749 mmHg 96%
03:00 +17°C° 1.1 mm 5 m/s 749 mmHg 96%
04:00 +16°C° 1.1 mm 5 m/s 749 mmHg 96%
05:00 +17°C° 0 mm 5 m/s 749 mmHg 93%
06:00 +17°C° 0 mm 5 m/s 750 mmHg 90%
07:00 +17°C° 0 mm 5 m/s 750 mmHg 88%
08:00 +20°C° 0 mm 5 m/s 750 mmHg 82%
09:00 +21°C° 0 mm 5 m/s 750 mmHg 76%
10:00 +23°C° 0 mm 5 m/s 750 mmHg 69%
11:00 +25°C° 0 mm 4 m/s 750 mmHg 66%
12:00 +26°C° 0 mm 4 m/s 750 mmHg 62%
13:00 +27°C° 0 mm 4 m/s 750 mmHg 58%
14:00 +27°C° 0 mm 4 m/s 750 mmHg 57%
15:00 +28°C° 0 mm 4 m/s 750 mmHg 56%
16:00 +28°C° 0 mm 3 m/s 749 mmHg 55%
17:00 +27°C° 0 mm 3 m/s 749 mmHg 61%
18:00 +26°C° 0 mm 2 m/s 749 mmHg 66%
19:00 +25°C° 0 mm 2 m/s 749 mmHg 72%
20:00 +24°C° 0 mm 2 m/s 749 mmHg 75%
21:00 +21°C° 0 mm 2 m/s 749 mmHg 79%
22:00 +20°C° 0 mm 2 m/s 749 mmHg 82%
23:00 +20°C° 0 mm 1 m/s 749 mmHg 85%
Mostrar mais

Necessitamos do seu Consentimento

A Meteoprog e os seus Fornecedores de Serviços podem armazenar e aceder a dados pessoais como cookies, identificadores do dispositivo ou outras tecnologias semelhantes existentes no seu dispositivo e processar estes dados para personalizar conteúdos e anúncios, assim como funcionalidades nas redes sociais e análise de tráfego.

  • Armazenar e/ou aceder a informações no seu dispositivo

    Os cookies, identificadores do dispositivo ou outras informações podem ser armazenados ou acedidos no seu dispositivo, para os fins acima indicados.

  • Anúncios e conteúdos personalizados, medição de anúncios e conteúdos, dados sobre o público-alvo e desenvolvimento de produtos

    Os anúncios e os conteúdos podem ser personalizados com base num perfil. Podem ser adicionados dados adicionais para uma maior personalização dos anúncios e dos conteúdos. A eficácia dos anúncios e dos conteúdos pode ser medida. Podem ser obtidas informações sobre o público que visualizou os anúncios e os conteúdos. Estes dados podem ser usados para desenvolver ou melhorar sistemas, softwares ou a experiência do utilizador.

Ao clicar em "Eu concordo”, permitirá o uso de cookies, identificadores do dispositivo e web beacons mencionados ou outras tecnologias semelhantes. As configurações do navegador do seu dispositivo podem ser alteradas.

Para certos fins, podem ser invocados interesses legítimos ao invés de consentimento. Pode ler mais informação sobre este assunto na nossa Política de Privacidade e Cookies.